Powrót do katalogu

FENGYUN 1C DEB

AktywnySSO
NORAD 38135·DEBRIS·🇨🇳 China

Wystrzelony May 10, 1999 z Taiyuan Satellite Launch Center

Loading…

Następne Przeloty (najbliższe 24 godziny)

TLE

ŚwieżeSource: Space-Track

Epoka: Sep 12, 2026, 09:54 UTC

1 38135U 99025EQG 26255.41278740  .00000538  00000-0  19109-3 0  9997
2 38135  98.6267 313.5195 0220073 353.5457   6.2898 14.25939111649405

Śledź FENGYUN 1C DEB w czasie rzeczywistym z AllMySat

Download on the App Store